Flag for Germany Weather past 2 weeks in Gelsenkirchen, North Rhine-Westphalia, Germany

Now
57 °F

Overcast.


Feels Like: 57 °F
Forecast: 51 / 63 °F
Wind: 1 mph from Southwest

Location: Duesseldorf

Current Time: Apr 25, 2015 at 3:38:49 AM

Latest Report: Apr 25, 2015 at 3:00 AM


Visibility: 14 mi

Pressure: 29.80 "Hg

Humidity: 87%

Dew point: 53 °F

Location of GelsenkirchenLocation

Historic Weather in Gelsenkirchen — Graph

°F

Gelsenkirchen temperature yesterday

Maximum temperature yesterday: 70 °F (at 6:00 PM)
Minimum temperature yesterday: 37 °F (at 6:00 AM)
Average temperature yesterday: 55 °F

Past Weeks' High & Low Weather Summary

 TemperatureHumidityPressure
High74 °F (Apr 15, 4:00 PM)97% (Apr 12, 2:00 AM)30.49 "Hg (Apr 12, 2:00 AM)
Low34 °F (Apr 19, 6:00 AM)29% (Apr 21, 4:00 PM)29.80 "Hg (Apr 25, 12:00 AM)
Average53 °F63%30.20 "Hg
* Reported Apr 10 1:00 AM — Apr 25 1:00 AM, Gelsenkirchen, Weather by CustomWeather, © 2015

Note: Actual official high and low records may vary slightly from our data, if they occured in-between our weather recording intervals... More about our weather records

Advertising

Gelsenkirchen weather history for previous 24 hours

 ConditionsComfort  
Time TempWeatherWind HumidityBarometerVisibility
1:00 AM
Sat, Apr 25
62 °FLight rain. Overcast.6 mph60%29.81 "Hg15 mi
12:00 AM60 °FOvercast.5 mph59%29.80 "Hg15 mi
10:00 PM
Fri, Apr 24
64 °FOvercast.3 mph50%29.81 "Hg14 mi
9:00 PM62 °FOvercast.2 mph53%29.81 "Hg12 mi
8:00 PM65 °FOvercast.3 mph51%29.82 "Hg16 mi
7:00 PM68 °FOvercast.3 mph40%29.83 "Hg16 mi
6:00 PM70 °FOvercast.5 mph33%29.84 "Hg16 mi
4:00 PM69 °FScattered clouds.6 mph31%29.87 "Hg16 mi
3:00 PM69 °FOvercast.6 mph34%29.89 "Hg12 mi
2:00 PM67 °FPartly sunny.6 mph36%29.90 "Hg12 mi
1:00 PM64 °FPassing clouds.6 mph43%29.92 "Hg9 mi
12:00 PM62 °FPassing clouds.3 mph49%29.94 "Hg9 mi
10:00 AM54 °FPassing clouds.3 mph62%29.96 "Hg6 mi
9:00 AM51 °FPassing clouds.5 mph70%29.96 "Hg6 mi
8:00 AM48 °FSunny.5 mph77%29.96 "Hg5 mi
7:00 AM45 °FFog.5 mph84%29.96 "Hg4 mi
6:00 AM37 °FFog.1 mph94%29.97 "Hg7 mi
4:00 AM40 °FFog.1 mph95%29.98 "Hg7 mi
3:00 AM40 °FFog.1 mph94%29.99 "Hg9 mi
Weather by CustomWeather, © 2015

See weather overviewHow to use our weather pages